^^
Your Local Weather - Clay, NY Station Historical Data
Daily Summary for January 24, 2018 Units:  English    Metric   Both
« Previous Day
Next Day »
Daily Weekly Monthly Yearly Custom
  High: Low: Average:
Temperature: 32.4 °F 18.5 °F 22 °F
Dew Point: 29.2 °F 12.7 °F 16.9 °F
Humidity: 88% 73% 80%
Wind Speed: 8.0mph 0.0mph 3.6mph
Wind Gust: 15.0mph - -
Wind- - WNW
Pressure: 30.23 in 29.67 in -
Precipitation: 0.00 in    
Historical Graphs
 
 
Tabular Data for January 24, 2018
Time Temperature Dew Point Pressure Wind Wind Speed Wind Gust Humidity Rainfall Rate (Hourly) solar
00:02 32.4 °F 29.2 °F 29.67 in NW 6.0 mph 8.0 mph 88% 0.00 in 0 W/m2
00:14 32.2 °F 28.5 °F 29.68 in West 8.0 mph 9.0 mph 86% 0.00 in 0 W/m2
00:20 32.1 °F 28.1 °F 29.69 in NW 7.0 mph 14.0 mph 85% 0.00 in 0 W/m2
00:26 32.0 °F 27.7 °F 29.69 in WNW 8.0 mph 14.0 mph 84% 0.00 in 0 W/m2
00:32 31.9 °F 27.6 °F 29.69 in WNW 6.0 mph 7.0 mph 84% 0.00 in 0 W/m2
00:38 31.7 °F 27.4 °F 29.70 in WNW 6.0 mph 12.0 mph 84% 0.00 in 0 W/m2
00:44 31.4 °F 27.1 °F 29.70 in NNW 7.0 mph 12.0 mph 84% 0.00 in 0 W/m2
00:50 31.3 °F 27.0 °F 29.70 in WNW 7.0 mph 7.0 mph 84% 0.00 in 0 W/m2
00:56 31.1 °F 26.8 °F 29.70 in WNW 6.0 mph 15.0 mph 84% 0.00 in 0 W/m2
01:02 30.9 °F 26.6 °F 29.71 in West 7.0 mph 11.0 mph 84% 0.00 in 0 W/m2
01:08 30.8 °F 26.5 °F 29.72 in WNW 7.0 mph 11.0 mph 84% 0.00 in 0 W/m2
01:20 30.5 °F 26.0 °F 29.72 in West 7.0 mph 7.0 mph 83% 0.00 in 0 W/m2
01:26 30.4 °F 25.6 °F 29.73 in WNW 7.0 mph 10.0 mph 82% 0.00 in 0 W/m2
01:32 30.3 °F 25.2 °F 29.74 in West 8.0 mph 8.0 mph 81% 0.00 in 0 W/m2
01:38 30.0 °F 24.9 °F 29.74 in NW 7.0 mph 10.0 mph 81% 0.00 in 0 W/m2
01:44 29.8 °F 25.0 °F 29.74 in West 7.0 mph 9.0 mph 82% 0.00 in 0 W/m2
01:50 29.6 °F 24.8 °F 29.75 in SSW 7.0 mph 7.0 mph 82% 0.00 in 0 W/m2
01:56 29.5 °F 25.0 °F 29.75 in NW 5.0 mph 10.0 mph 83% 0.00 in 0 W/m2
02:02 29.3 °F 24.8 °F 29.76 in WNW 6.0 mph 6.0 mph 83% 0.00 in 0 W/m2
02:08 29.2 °F 25.0 °F 29.77 in West 5.0 mph 10.0 mph 84% 0.00 in 0 W/m2
02:14 29.0 °F 25.1 °F 29.77 in WNW 5.0 mph 7.0 mph 85% 0.00 in 0 W/m2
02:20 28.9 °F 25.0 °F 29.78 in WNW 5.0 mph 5.0 mph 85% 0.00 in 0 W/m2
02:26 28.8 °F 24.9 °F 29.78 in WSW 6.0 mph 14.0 mph 85% 0.00 in 0 W/m2
02:32 28.7 °F 24.8 °F 29.79 in NW 7.0 mph 9.0 mph 85% 0.00 in 0 W/m2
02:38 28.6 °F 24.7 °F 29.80 in WNW 6.0 mph 9.0 mph 85% 0.00 in 0 W/m2
02:50 28.2 °F 24.0 °F 29.80 in NNW 7.0 mph 7.0 mph 84% 0.00 in 0 W/m2
02:56 28.1 °F 23.6 °F 29.81 in West 8.0 mph 9.0 mph 83% 0.00 in 0 W/m2
03:02 28.0 °F 23.5 °F 29.80 in West 7.0 mph 8.0 mph 83% 0.00 in 0 W/m2
03:14 27.8 °F 23.9 °F 29.82 in NW 5.0 mph 10.0 mph 85% 0.00 in 0 W/m2
03:20 27.4 °F 23.5 °F 29.82 in WNW 5.0 mph 5.0 mph 85% 0.00 in 0 W/m2
03:26 27.2 °F 23.6 °F 29.82 in NW 5.0 mph 6.0 mph 86% 0.00 in 0 W/m2
03:38 26.9 °F 23.0 °F 29.82 in WNW 6.0 mph 6.0 mph 85% 0.00 in 0 W/m2
03:44 26.8 °F 22.9 °F 29.83 in WNW 6.0 mph 12.0 mph 85% 0.00 in 0 W/m2
03:50 26.7 °F 22.5 °F 29.83 in West 6.0 mph 8.0 mph 84% 0.00 in 0 W/m2
03:56 26.4 °F 22.2 °F 29.84 in WNW 7.0 mph 8.0 mph 84% 0.00 in 0 W/m2
04:02 26.2 °F 22.0 °F 29.84 in NW 6.0 mph 7.0 mph 84% 0.00 in 0 W/m2
04:08 26.1 °F 21.6 °F 29.84 in WNW 6.0 mph 9.0 mph 83% 0.00 in 0 W/m2
04:20 26.1 °F 21.1 °F 29.85 in WNW 7.0 mph 7.0 mph 81% 0.00 in 0 W/m2
04:32 26.0 °F 20.7 °F 29.85 in West 7.0 mph 10.0 mph 80% 0.00 in 0 W/m2
04:38 25.9 °F 20.6 °F 29.86 in NW 7.0 mph 10.0 mph 80% 0.00 in 0 W/m2
04:44 25.8 °F 20.2 °F 29.86 in WNW 7.0 mph 9.0 mph 79% 0.00 in 0 W/m2
04:50 25.7 °F 20.1 °F 29.87 in West 8.0 mph 8.0 mph 79% 0.00 in 0 W/m2
04:56 25.5 °F 20.2 °F 29.88 in NW 7.0 mph 9.0 mph 80% 0.00 in 0 W/m2
05:02 25.3 °F 20.0 °F 29.88 in West 6.0 mph 8.0 mph 80% 0.00 in 0 W/m2
05:08 25.1 °F 19.5 °F 29.89 in WNW 6.0 mph 8.0 mph 79% 0.00 in 0 W/m2
05:14 25.1 °F 19.5 °F 29.89 in WNW 5.0 mph 6.0 mph 79% 0.00 in 0 W/m2
05:20 24.9 °F 19.3 °F 29.90 in NNW 6.0 mph 6.0 mph 79% 0.00 in 0 W/m2
05:26 24.7 °F 19.1 °F 29.90 in WNW 7.0 mph 11.0 mph 79% 0.00 in 0 W/m2
05:32 24.5 °F 18.9 °F 29.90 in West 7.0 mph 7.0 mph 79% 0.00 in 0 W/m2
05:38 24.4 °F 19.1 °F 29.91 in WNW 6.0 mph 7.0 mph 80% 0.00 in 0 W/m2
05:44 24.4 °F 19.1 °F 29.91 in NW 5.0 mph 6.0 mph 80% 0.00 in 0 W/m2
05:50 24.1 °F 18.8 °F 29.91 in WNW 6.0 mph 6.0 mph 80% 0.00 in 0 W/m2
05:56 23.8 °F 18.5 °F 29.92 in West 6.0 mph 8.0 mph 80% 0.00 in 0 W/m2
06:02 23.7 °F 18.4 °F 29.93 in WNW 5.0 mph 6.0 mph 80% 0.00 in 0 W/m2
06:08 23.5 °F 18.5 °F 29.93 in WNW 6.0 mph 7.0 mph 81% 0.00 in 0 W/m2
06:14 23.3 °F 18.3 °F 29.93 in WNW 6.0 mph 10.0 mph 81% 0.00 in 0 W/m2
06:20 23.3 °F 18.6 °F 29.94 in NW 5.0 mph 5.0 mph 82% 0.00 in 0 W/m2
06:26 23.2 °F 18.5 °F 29.94 in NW 5.0 mph 8.0 mph 82% 0.00 in 0 W/m2
06:32 23.2 °F 18.5 °F 29.95 in NW 5.0 mph 5.0 mph 82% 0.00 in 0 W/m2
06:38 23.0 °F 18.3 °F 29.95 in NW 5.0 mph 6.0 mph 82% 0.00 in 0 W/m2
06:44 22.9 °F 18.2 °F 29.96 in NW 4.0 mph 6.0 mph 82% 0.00 in 0 W/m2
06:50 22.7 °F 18.0 °F 29.96 in NNW 5.0 mph 5.0 mph 82% 0.00 in 0 W/m2
06:56 22.6 °F 18.2 °F 29.96 in WNW 4.0 mph 5.0 mph 83% 0.00 in 0 W/m2
07:02 22.5 °F 18.1 °F 29.96 in WNW 4.0 mph 6.0 mph 83% 0.00 in 0 W/m2
07:08 22.4 °F 18.0 °F 29.97 in NW 5.0 mph 10.0 mph 83% 0.00 in 0 W/m2
07:14 22.3 °F 17.9 °F 29.97 in NW 5.0 mph 7.0 mph 83% 0.00 in 0 W/m2
07:20 22.3 °F 17.9 °F 29.98 in North 4.0 mph 4.0 mph 83% 0.00 in 0 W/m2
07:26 22.2 °F 17.8 °F 29.98 in WNW 4.0 mph 6.0 mph 83% 0.00 in 0 W/m2
07:32 22.2 °F 17.8 °F 29.98 in NNW 3.0 mph 5.0 mph 83% 0.00 in 0 W/m2
07:38 22.0 °F 17.6 °F 29.99 in WNW 5.0 mph 6.0 mph 83% 0.00 in 0 W/m2
07:44 21.8 °F 17.4 °F 29.99 in NW 5.0 mph 5.0 mph 83% 0.00 in 0 W/m2
07:50 21.6 °F 17.0 °F 29.99 in West 5.0 mph 6.0 mph 82% 0.00 in 0 W/m2
07:56 21.5 °F 16.9 °F 30.00 in North 5.0 mph 8.0 mph 82% 0.00 in 5 W/m2
08:02 21.5 °F 16.9 °F 30.00 in NNW 5.0 mph 6.0 mph 82% 0.00 in 5 W/m2
08:08 21.4 °F 16.8 °F 30.01 in NW 5.0 mph 8.0 mph 82% 0.00 in 7 W/m2
08:14 21.4 °F 16.8 °F 30.02 in NW 4.0 mph 5.0 mph 82% 0.00 in 7 W/m2
08:20 21.3 °F 16.4 °F 30.02 in WNW 4.0 mph 4.0 mph 81% 0.00 in 11 W/m2
08:26 21.2 °F 16.6 °F 30.02 in NW 4.0 mph 6.0 mph 82% 0.00 in 14 W/m2
08:32 21.1 °F 16.5 °F 30.02 in NW 4.0 mph 5.0 mph 82% 0.00 in 16 W/m2
08:38 20.8 °F 16.5 °F 30.03 in WNW 4.0 mph 8.0 mph 83% 0.00 in 23 W/m2
08:44 20.8 °F 16.7 °F 30.03 in NNW 4.0 mph 5.0 mph 84% 0.00 in 25 W/m2
08:50 20.5 °F 16.4 °F 30.04 in WNW 4.0 mph 4.0 mph 84% 0.00 in 25 W/m2
09:02 20.2 °F 16.4 °F 30.04 in WNW 4.0 mph 5.0 mph 85% 0.00 in 28 W/m2
09:14 20.1 °F 16.6 °F 30.05 in WNW 4.0 mph 5.0 mph 86% 0.00 in 39 W/m2
09:20 20.2 °F 16.7 °F 30.05 in WNW 3.0 mph 3.0 mph 86% 0.00 in 51 W/m2
09:26 20.3 °F 16.8 °F 30.05 in WNW 3.0 mph 4.0 mph 86% 0.00 in 51 W/m2
09:32 20.3 °F 16.8 °F 30.05 in WNW 3.0 mph 6.0 mph 86% 0.00 in 58 W/m2
09:44 20.3 °F 17.0 °F 30.06 in WNW 3.0 mph 3.0 mph 87% 0.00 in 63 W/m2
09:50 20.3 °F 16.8 °F 30.06 in WNW 2.0 mph 4.0 mph 86% 0.00 in 58 W/m2
09:56 20.3 °F 16.8 °F 30.07 in WNW 2.0 mph 5.0 mph 86% 0.00 in 63 W/m2
10:08 20.3 °F 16.8 °F 30.07 in NW 3.0 mph 7.0 mph 86% 0.00 in 63 W/m2
10:14 19.9 °F 16.4 °F 30.07 in NNW 4.0 mph 5.0 mph 86% 0.00 in 69 W/m2
10:20 19.6 °F 15.8 °F 30.07 in NW 5.0 mph 6.0 mph 85% 0.00 in 77 W/m2
10:32 19.5 °F 15.7 °F 30.07 in NNW 4.0 mph 5.0 mph 85% 0.00 in 84 W/m2
10:44 19.4 °F 15.4 °F 30.08 in NW 4.0 mph 6.0 mph 84% 0.00 in 105 W/m2
10:50 19.4 °F 15.1 °F 30.08 in NW 5.0 mph 5.0 mph 83% 0.00 in 120 W/m2
10:56 19.5 °F 14.9 °F 30.08 in NW 5.0 mph 8.0 mph 82% 0.00 in 121 W/m2
11:02 19.5 °F 14.6 °F 30.08 in WNW 5.0 mph 5.0 mph 81% 0.00 in 120 W/m2
11:08 19.6 °F 14.4 °F 30.08 in WNW 4.0 mph 6.0 mph 80% 0.00 in 111 W/m2
11:14 19.7 °F 14.5 °F 30.09 in NW 4.0 mph 5.0 mph 80% 0.00 in 132 W/m2
11:20 19.8 °F 14.6 °F 30.09 in WNW 3.0 mph 3.0 mph 80% 0.00 in 141 W/m2
11:26 19.9 °F 14.4 °F 30.09 in WNW 3.0 mph 6.0 mph 79% 0.00 in 156 W/m2
11:38 19.8 °F 14.0 °F 30.08 in NW 4.0 mph 6.0 mph 78% 0.00 in 169 W/m2
11:44 20.0 °F 14.2 °F 30.08 in NNW 3.0 mph 9.0 mph 78% 0.00 in 176 W/m2
11:50 19.9 °F 13.9 °F 30.08 in NNW 4.0 mph 4.0 mph 77% 0.00 in 190 W/m2
11:56 20.0 °F 13.6 °F 30.08 in NW 4.0 mph 5.0 mph 76% 0.00 in 188 W/m2
12:02 20.0 °F 13.3 °F 30.08 in NW 5.0 mph 10.0 mph 75% 0.00 in 188 W/m2
12:20 19.8 °F 12.8 °F 30.07 in WNW 5.0 mph 5.0 mph 74% 0.00 in 188 W/m2
12:26 19.7 °F 12.8 °F 30.08 in NNW 5.0 mph 7.0 mph 74% 0.00 in 200 W/m2
12:38 20.0 °F 12.7 °F 30.08 in WNW 4.0 mph 6.0 mph 73% 0.00 in 221 W/m2
12:50 20.1 °F 12.8 °F 30.08 in NW 4.0 mph 4.0 mph 73% 0.00 in 171 W/m2
12:56 20.1 °F 13.1 °F 30.08 in NW 4.0 mph 7.0 mph 74% 0.00 in 185 W/m2
13:08 20.1 °F 12.8 °F 30.08 in NW 4.0 mph 7.0 mph 73% 0.00 in 174 W/m2
13:14 20.2 °F 13.2 °F 30.08 in NW 4.0 mph 6.0 mph 74% 0.00 in 186 W/m2
13:20 20.3 °F 13.3 °F 30.08 in NNW 3.0 mph 3.0 mph 74% 0.00 in 167 W/m2
13:26 20.2 °F 13.2 °F 30.08 in North 4.0 mph 7.0 mph 74% 0.00 in 149 W/m2
13:32 20.3 °F 13.3 °F 30.08 in NNW 4.0 mph 4.0 mph 74% 0.00 in 128 W/m2
13:38 20.3 °F 13.3 °F 30.09 in NNW 3.0 mph 7.0 mph 74% 0.00 in 118 W/m2
13:44 20.0 °F 13.3 °F 30.09 in NW 4.0 mph 4.0 mph 75% 0.00 in 118 W/m2
13:56 20.0 °F 13.6 °F 30.09 in WNW 3.0 mph 4.0 mph 76% 0.00 in 123 W/m2
14:02 20.1 °F 13.7 °F 30.08 in NW 3.0 mph 3.0 mph 76% 0.00 in 151 W/m2
14:08 20.0 °F 13.3 °F 30.08 in NNW 3.0 mph 7.0 mph 75% 0.00 in 134 W/m2
14:14 20.1 °F 13.7 °F 30.09 in NNW 3.0 mph 3.0 mph 76% 0.00 in 118 W/m2
14:20 20.0 °F 13.6 °F 30.09 in West 3.0 mph 6.0 mph 76% 0.00 in 104 W/m2
14:32 19.8 °F 13.5 °F 30.10 in WNW 3.0 mph 3.0 mph 76% 0.00 in 102 W/m2
14:46 19.7 °F 13.4 °F 30.11 in NW 4.0 mph 4.0 mph 76% 0.00 in 88 W/m2
14:52 19.7 °F 13.4 °F 30.11 in NW 3.0 mph 4.0 mph 76% 0.00 in 86 W/m2
14:58 19.7 °F 13.4 °F 30.11 in NNW 4.0 mph 7.0 mph 76% 0.00 in 84 W/m2
15:04 19.7 °F 13.4 °F 30.11 in WNW 3.0 mph 7.0 mph 76% 0.00 in 84 W/m2
15:10 19.7 °F 13.1 °F 30.12 in NW 3.0 mph 4.0 mph 75% 0.00 in 77 W/m2
15:16 19.7 °F 13.1 °F 30.12 in WNW 4.0 mph 4.0 mph 75% 0.00 in 81 W/m2
15:22 19.7 °F 13.1 °F 30.12 in NW 3.0 mph 4.0 mph 75% 0.00 in 81 W/m2
15:28 19.7 °F 13.1 °F 30.12 in NW 4.0 mph 4.0 mph 75% 0.00 in 84 W/m2
15:40 19.7 °F 13.4 °F 30.13 in NW 3.0 mph 4.0 mph 76% 0.00 in 70 W/m2
15:46 19.7 °F 13.4 °F 30.13 in WNW 3.0 mph 6.0 mph 76% 0.00 in 51 W/m2
15:52 19.7 °F 13.4 °F 30.13 in WNW 3.0 mph 3.0 mph 76% 0.00 in 47 W/m2
15:58 19.6 °F 13.0 °F 30.13 in WNW 3.0 mph 6.0 mph 75% 0.00 in 44 W/m2
16:04 19.6 °F 13.0 °F 30.13 in WNW 4.0 mph 6.0 mph 75% 0.00 in 39 W/m2
16:10 19.6 °F 13.0 °F 30.14 in West 3.0 mph 3.0 mph 75% 0.00 in 33 W/m2
16:16 19.7 °F 13.1 °F 30.14 in WNW 3.0 mph 4.0 mph 75% 0.00 in 26 W/m2
16:22 19.7 °F 13.4 °F 30.14 in NW 3.0 mph 3.0 mph 76% 0.00 in 32 W/m2
16:28 19.7 °F 13.1 °F 30.14 in WNW 3.0 mph 3.0 mph 75% 0.00 in 26 W/m2
16:34 19.7 °F 13.4 °F 30.14 in WNW 3.0 mph 4.0 mph 76% 0.00 in 21 W/m2
16:40 19.6 °F 13.3 °F 30.15 in NW 3.0 mph 5.0 mph 76% 0.00 in 14 W/m2
16:46 19.5 °F 13.5 °F 30.15 in NW 3.0 mph 5.0 mph 77% 0.00 in 12 W/m2
16:52 19.5 °F 13.5 °F 30.15 in NW 2.0 mph 5.0 mph 77% 0.00 in 7 W/m2
16:58 19.5 °F 13.5 °F 30.15 in WNW 3.0 mph 5.0 mph 77% 0.00 in 0 W/m2
17:04 19.5 °F 13.5 °F 30.16 in WNW 2.0 mph 3.0 mph 77% 0.00 in 0 W/m2
17:10 19.4 °F 13.4 °F 30.16 in NW 1.0 mph 1.0 mph 77% 0.00 in 0 W/m2
17:16 19.5 °F 13.5 °F 30.17 in West 2.0 mph 3.0 mph 77% 0.00 in 0 W/m2
17:22 19.5 °F 13.5 °F 30.17 in NNW 2.0 mph 2.0 mph 77% 0.00 in 0 W/m2
17:28 19.5 °F 13.5 °F 30.17 in NNW 2.0 mph 2.0 mph 77% 0.00 in 0 W/m2
17:34 19.5 °F 13.5 °F 30.17 in NW 2.0 mph 3.0 mph 77% 0.00 in 0 W/m2
17:40 19.5 °F 13.5 °F 30.17 in NW 2.0 mph 2.0 mph 77% 0.00 in 0 W/m2
17:46 19.6 °F 13.9 °F 30.18 in NW 2.0 mph 2.0 mph 78% 0.00 in 0 W/m2
17:52 19.6 °F 13.9 °F 30.18 in NW 1.0 mph 2.0 mph 78% 0.00 in 0 W/m2
17:58 19.7 °F 14.0 °F 30.18 in WNW 2.0 mph 3.0 mph 78% 0.00 in 0 W/m2
18:04 19.7 °F 14.2 °F 30.19 in WNW 2.0 mph 2.0 mph 79% 0.00 in 0 W/m2
18:10 19.7 °F 14.2 °F 30.19 in WNW 1.0 mph 1.0 mph 79% 0.00 in 0 W/m2
18:16 19.7 °F 14.2 °F 30.19 in WNW 1.0 mph 1.0 mph 79% 0.00 in 0 W/m2
18:22 19.8 °F 14.3 °F 30.19 in Calm   3.0 mph 79% 0.00 in 0 W/m2
18:28 19.9 °F 14.4 °F 30.20 in Calm   3.0 mph 79% 0.00 in 0 W/m2
18:34 19.9 °F 14.4 °F 30.20 in WNW 1.0 mph 3.0 mph 79% 0.00 in 0 W/m2
18:40 20.0 °F 14.5 °F 30.19 in WNW 1.0 mph 1.0 mph 79% 0.00 in 0 W/m2
18:46 20.0 °F 14.5 °F 30.19 in Calm   1.0 mph 79% 0.00 in 0 W/m2
18:52 20.1 °F 14.6 °F 30.19 in Calm   1.0 mph 79% 0.00 in 0 W/m2
18:58 20.0 °F 14.5 °F 30.20 in Calm   1.0 mph 79% 0.00 in 0 W/m2
19:04 20.1 °F 14.6 °F 30.20 in Calm     79% 0.00 in 0 W/m2
19:10 20.1 °F 14.6 °F 30.20 in Calm     79% 0.00 in 0 W/m2
19:16 20.1 °F 14.6 °F 30.20 in WNW 1.0 mph 1.0 mph 79% 0.00 in 0 W/m2
19:22 20.1 °F 14.6 °F 30.20 in Calm   1.0 mph 79% 0.00 in 0 W/m2
19:28 20.0 °F 14.5 °F 30.20 in Calm   1.0 mph 79% 0.00 in 0 W/m2
19:34 19.9 °F 14.4 °F 30.20 in Calm     79% 0.00 in 0 W/m2
19:40 19.7 °F 14.2 °F 30.20 in Calm   1.0 mph 79% 0.00 in 0 W/m2
19:46 19.6 °F 14.1 °F 30.21 in WNW 1.0 mph 1.0 mph 79% 0.00 in 0 W/m2
19:52 19.5 °F 14.3 °F 30.21 in Calm     80% 0.00 in 0 W/m2
19:58 19.3 °F 14.1 °F 30.21 in Calm     80% 0.00 in 0 W/m2
20:04 19.3 °F 14.1 °F 30.21 in Calm     80% 0.00 in 0 W/m2
20:10 19.2 °F 14.0 °F 30.21 in Calm     80% 0.00 in 0 W/m2
20:16 19.1 °F 13.9 °F 30.21 in Calm     80% 0.00 in 0 W/m2
20:22 18.9 °F 13.7 °F 30.21 in Calm     80% 0.00 in 0 W/m2
20:28 18.8 °F 13.7 °F 30.20 in Calm     80% 0.00 in 0 W/m2
20:34 18.7 °F 13.8 °F 30.21 in Calm     81% 0.00 in 0 W/m2
20:40 18.6 °F 13.5 °F 30.21 in Calm     80% 0.00 in 0 W/m2
20:46 18.6 °F 13.7 °F 30.21 in Calm   1.0 mph 81% 0.00 in 0 W/m2
20:52 18.5 °F 13.4 °F 30.21 in Calm     80% 0.00 in 0 W/m2
20:58 18.6 °F 13.7 °F 30.21 in Calm   1.0 mph 81% 0.00 in 0 W/m2
21:04 18.7 °F 13.8 °F 30.21 in WNW 1.0 mph 1.0 mph 81% 0.00 in 0 W/m2
21:10 18.7 °F 13.8 °F 30.21 in WNW 1.0 mph 2.0 mph 81% 0.00 in 0 W/m2
21:16 18.8 °F 13.9 °F 30.21 in WNW 1.0 mph 2.0 mph 81% 0.00 in 0 W/m2
21:22 18.8 °F 13.9 °F 30.21 in SW 1.0 mph 4.0 mph 81% 0.00 in 0 W/m2
21:28 18.8 °F 14.2 °F 30.21 in SW 2.0 mph 4.0 mph 82% 0.00 in 0 W/m2
21:34 18.8 °F 14.2 °F 30.21 in WSW 2.0 mph 6.0 mph 82% 0.00 in 0 W/m2
21:40 19.0 °F 14.4 °F 30.21 in SW 2.0 mph 5.0 mph 82% 0.00 in 0 W/m2
21:46 19.0 °F 14.4 °F 30.21 in WSW 3.0 mph 5.0 mph 82% 0.00 in 0 W/m2
21:52 19.1 °F 14.5 °F 30.21 in WSW 3.0 mph 3.0 mph 82% 0.00 in 0 W/m2
21:58 19.1 °F 14.5 °F 30.21 in SW 2.0 mph 6.0 mph 82% 0.00 in 0 W/m2
22:04 19.0 °F 14.4 °F 30.21 in WSW 3.0 mph 4.0 mph 82% 0.00 in 0 W/m2
22:10 19.0 °F 14.4 °F 30.22 in WSW 2.0 mph 2.0 mph 82% 0.00 in 0 W/m2
22:16 19.1 °F 14.5 °F 30.22 in WSW 2.0 mph 3.0 mph 82% 0.00 in 0 W/m2
22:22 19.1 °F 14.5 °F 30.21 in WSW 1.0 mph 2.0 mph 82% 0.00 in 0 W/m2
22:28 19.1 °F 14.5 °F 30.22 in WSW 2.0 mph 4.0 mph 82% 0.00 in 0 W/m2
22:34 19.2 °F 14.6 °F 30.22 in SW 2.0 mph 2.0 mph 82% 0.00 in 0 W/m2
22:40 19.2 °F 14.6 °F 30.22 in West 1.0 mph 4.0 mph 82% 0.00 in 0 W/m2
22:46 19.3 °F 14.7 °F 30.21 in WSW 1.0 mph 4.0 mph 82% 0.00 in 0 W/m2
22:52 19.3 °F 14.7 °F 30.21 in WSW 2.0 mph 4.0 mph 82% 0.00 in 0 W/m2
22:58 19.3 °F 14.7 °F 30.21 in SW 2.0 mph 5.0 mph 82% 0.00 in 0 W/m2
23:04 19.3 °F 14.7 °F 30.22 in WSW 2.0 mph 4.0 mph 82% 0.00 in 0 W/m2
23:10 19.2 °F 14.6 °F 30.22 in SW 2.0 mph 2.0 mph 82% 0.00 in 0 W/m2
23:16 19.1 °F 14.5 °F 30.22 in SW 1.0 mph 2.0 mph 82% 0.00 in 0 W/m2
23:22 19.1 °F 14.5 °F 30.22 in WNW 1.0 mph 3.0 mph 82% 0.00 in 0 W/m2
23:28 19.0 °F 14.4 °F 30.22 in WNW 1.0 mph 3.0 mph 82% 0.00 in 0 W/m2
23:34 18.9 °F 14.3 °F 30.22 in WNW 1.0 mph 2.0 mph 82% 0.00 in 0 W/m2
23:40 18.9 °F 14.3 °F 30.22 in WNW 1.0 mph 1.0 mph 82% 0.00 in 0 W/m2
23:46 18.8 °F 14.2 °F 30.22 in Calm   1.0 mph 82% 0.00 in 0 W/m2
23:52 18.8 °F 14.2 °F 30.22 in Calm   1.0 mph 82% 0.00 in 0 W/m2
23:58 18.8 °F 14.2 °F 30.23 in WNW 1.0 mph 2.0 mph 82% 0.00 in 0 W/m2
Country Meadow, Clay, NY, USA
Compliments of Weather Underground - 2 mb